Weather History for Lawrence, MA

Change the Weather History Date:

Saturday, January 12, 2013

  Actual Average Record
Temperature  
Mean Temperature 42 °F -  
Max Temperature 44 °F 32 °F 58 °F (1975)
Min Temperature 39 °F 12 °F -10 °F (1981)
Degree Days  
Heating Degree Days 24    
Moisture  
Dew Point 38 °F    
Average Humidity 89    
Maximum Humidity 93    
Minimum Humidity 85    
Precipitation  
Precipitation 0.00 in - - ()
Sea Level Pressure  
Sea Level Pressure 30.18 in    
Wind  
Wind Speed 2 mph (SSW)    
Max Wind Speed 6 mph    
Max Gust Speed -    
Visibility 2 miles    
Events Fog , Rain    
Averages and records for this station are not official NWS values.
T = Trace of Precipitation, MM = Missing Value Source: NWS Daily Summary

Daily Weather History Graph

Daily Weather History Graph

Search for Another Location

Airport:

Trip Planner

Search our weather history database for the weather conditions in past years. The results will help you decide how hot, cold, wet, or windy it might be!

Date:

Astronomy

Jan. 12, 2013 Rise Set
Actual Time 7:13 AM EST 4:32 PM EST
Civil Twilight 6:41 AM EST 5:04 PM EST
Nautical Twilight 6:06 AM EST 5:39 PM EST
Astronomical Twilight 5:32 AM EST 6:13 PM EST
Moon 7:27 AM EST (1/12) 6:01 PM EST (1/12)
Length of Visible Light 10h 22m
Length of Day
9h 19m
New Moon, 1% of the Moon is Illuminated
Jan 12
New Moon
Jan 18
First Quarter
Jan 26
Full
Feb 3
Last Quarter
Feb 10
New

Hourly Weather History & Observations

Time (EST) Temp. Windchill Dew Point Humidity Pressure Visibility Wind Dir Wind Speed Gust Speed Precip Events Conditions
12:03 AM 39.2 °F 35.0 °F 35.6 °F 87% 30.24 in 4.0 mi SSE 5.8 mph - 0.00 in Rain Light Rain
12:39 AM 39.2 °F 37.0 °F 35.6 °F 87% 30.23 in 6.0 mi SSE 3.5 mph - 0.00 in   Overcast
12:54 AM 39.0 °F 36.8 °F 36.0 °F 89% 30.22 in 9.0 mi Variable 3.5 mph - 0.00 in   Overcast
1:10 AM 39.2 °F 37.0 °F 35.6 °F 87% 30.22 in 10.0 mi SSE 3.5 mph - N/A   Overcast
1:54 AM 39.0 °F 36.8 °F 36.0 °F 89% 30.22 in 4.0 mi ESE 3.5 mph - N/A   Overcast
2:54 AM 39.9 °F - 37.0 °F 89% 30.20 in 6.0 mi Calm Calm - 0.00 in   Overcast
3:54 AM 39.9 °F - 37.0 °F 89% 30.19 in 8.0 mi Calm Calm - N/A   Overcast
4:54 AM 39.9 °F - 37.0 °F 89% 30.18 in 10.0 mi Calm Calm - N/A   Overcast
5:22 AM 41.0 °F - 37.4 °F 87% 30.19 in 10.0 mi Calm Calm - N/A   Overcast
5:54 AM 39.9 °F 37.8 °F 37.0 °F 89% 30.18 in 4.0 mi East 3.5 mph - N/A   Overcast
6:52 AM 39.2 °F - 37.4 °F 93% 30.19 in 3.0 mi Calm Calm - N/A   Overcast
6:54 AM 39.0 °F - 37.0 °F 93% 30.19 in 3.0 mi Calm Calm - N/A   Overcast
7:23 AM 39.2 °F - 37.4 °F 93% 30.19 in 1.8 mi Calm Calm - N/A   Overcast
7:43 AM 39.2 °F - 37.4 °F 93% 30.20 in 0.8 mi Calm Calm - N/A   Overcast
7:50 AM 39.2 °F - 37.4 °F 93% 30.20 in 0.5 mi Calm Calm - N/A Fog Fog
7:54 AM 39.9 °F - 37.0 °F 89% 30.21 in 0.5 mi Calm Calm - N/A Fog Fog
8:14 AM 39.2 °F - 37.4 °F 93% 30.20 in 0.8 mi Calm Calm - N/A   Mist
8:30 AM 39.2 °F - 37.4 °F 93% 30.20 in 1.0 mi Calm Calm - N/A   Mist
8:49 AM 39.2 °F - 37.4 °F 93% 30.22 in 0.8 mi Calm Calm - N/A   Mist
8:54 AM 39.9 °F - 37.9 °F 93% 30.22 in 0.5 mi Calm Calm - N/A Fog Fog
9:20 AM 41.0 °F - 37.4 °F 87% 30.22 in 0.8 mi Calm Calm - N/A   Mist
9:44 AM 41.0 °F - 39.2 °F 93% 30.21 in 1.5 mi Calm Calm - N/A   Overcast
9:54 AM 41.0 °F - 39.0 °F 93% 30.21 in 1.8 mi Calm Calm - N/A   Overcast
10:13 AM 41.0 °F - 37.4 °F 87% 30.21 in 0.8 mi Calm Calm - N/A   Overcast
10:54 AM 41.0 °F - 39.0 °F 93% 30.20 in 0.5 mi Calm Calm - N/A Fog Fog
11:03 AM 42.8 °F - 39.2 °F 87% 30.19 in 1.0 mi Calm Calm - N/A   Mist
11:32 AM 42.8 °F - 39.2 °F 87% 30.17 in 2.5 mi Calm Calm - N/A   Overcast
11:41 AM 42.8 °F - 39.2 °F 87% 30.17 in 5.0 mi Calm Calm - N/A   Overcast
11:54 AM 43.0 °F - 39.0 °F 86% 30.16 in 1.0 mi Calm Calm - N/A   Overcast
12:54 PM 44.1 °F - 39.9 °F 85% 30.16 in 9.0 mi Calm Calm - N/A   Overcast
1:54 PM 44.1 °F - 39.9 °F 85% 30.18 in 4.0 mi Calm Calm - N/A   Overcast
2:21 PM 42.8 °F - 39.2 °F 87% 30.17 in 1.8 mi Calm Calm - N/A   Overcast
2:54 PM 43.0 °F - 39.9 °F 89% 30.18 in 1.5 mi Calm Calm - N/A   Overcast
3:54 PM 43.0 °F - 41.0 °F 93% 30.18 in 0.8 mi Calm Calm - N/A   Overcast
4:04 PM 42.8 °F - 41.0 °F 93% 30.17 in 0.2 mi Calm Calm - N/A Fog Fog
4:54 PM 43.0 °F 41.3 °F 39.9 °F 89% 30.18 in 0.2 mi WSW 3.5 mph - N/A Fog Fog
5:49 PM 42.8 °F 41.1 °F 39.2 °F 87% 30.17 in 0.8 mi WSW 3.5 mph - N/A   Mist
5:54 PM 42.1 °F 40.2 °F 39.9 °F 92% 30.17 in 0.8 mi SW 3.5 mph - N/A   Mist
6:11 PM 42.8 °F 41.1 °F 39.2 °F 87% 30.17 in 1.0 mi SW 3.5 mph - N/A   Mist
6:21 PM 42.8 °F 40.1 °F 39.2 °F 87% 30.17 in 0.8 mi SW 4.6 mph - N/A   Mist
6:52 PM 42.8 °F - 39.2 °F 87% 30.16 in 0.5 mi Calm Calm - N/A Fog Fog
6:54 PM 42.1 °F - 39.9 °F 92% 30.16 in 0.5 mi Calm Calm - N/A Fog Fog
7:22 PM 42.8 °F - 39.2 °F 87% 30.15 in 1.0 mi Calm Calm - N/A   Mist
7:54 PM 42.8 °F - 39.2 °F 87% 30.16 in 1.2 mi Calm Calm - N/A   Overcast
8:54 PM 42.1 °F 40.2 °F 39.9 °F 92% 30.17 in 1.0 mi SW 3.5 mph - N/A   Mist
9:13 PM 42.8 °F - 39.2 °F 87% 30.15 in 0.8 mi Calm Calm - N/A   Mist
9:29 PM 42.8 °F - 39.2 °F 87% 30.16 in 1.0 mi Calm Calm - N/A   Mist
9:39 PM 42.8 °F 41.1 °F 39.2 °F 87% 30.15 in 0.8 mi SSW 3.5 mph - N/A   Mist
9:47 PM 42.8 °F 40.1 °F 39.2 °F 87% 30.15 in 0.5 mi SSW 4.6 mph - N/A Fog Fog
9:54 PM 42.1 °F 40.2 °F 39.9 °F 92% 30.15 in 0.8 mi SSW 3.5 mph - N/A   Mist
10:21 PM 42.8 °F 41.1 °F 39.2 °F 87% 30.14 in 0.5 mi SSW 3.5 mph - N/A Fog Fog
10:40 PM 42.8 °F - 39.2 °F 87% 30.14 in 0.8 mi Calm Calm - N/A   Mist
10:54 PM 42.1 °F - 39.9 °F 92% 30.15 in 0.8 mi Calm Calm - N/A   Mist
11:09 PM 42.8 °F 41.1 °F 39.2 °F 87% 30.15 in 0.5 mi SW 3.5 mph - N/A Fog Fog
11:54 PM 42.1 °F 39.2 °F 39.9 °F 92% 30.15 in 0.5 mi SW 4.6 mph - N/A Fog Fog